Temperature
11 11 11 11 11 11 11 11 11 11 11 11 11 11 11 11 11 12 12 12 12 12 12 12 12 12 12 12 12 12 12 12 12 12 12 12 12 11 11 11 11 11 11
10 10 10 10 10 11 11 10 10 11 11 11 11 11 11 11 11 11 11 12 12 12 12 12 12 12 12 12 12 12 12 12 12 12 12 12 12 11 11 11 11 11 11
10 10 10 10 10 10 10 10 10 10 10 10 10 10 11 11 11 11 11 11 11 12 12 12 12 12 12 12 12 12 12 12 11 11 12 11 11 11 11 11 11 11 11
9 9 9 9 10 10 10 10 10 10 10 10 10 10 10 10 10 11 11 11 11 11 11 12 11 11 11 11 11 11 11 11 11 11 11 11 11 11 11 11 10 10 10
9 9 9 9 9 9 9 9 9 9 9 9 9 9 10 10 10 10 10 10 10 10 11 11 11 11 11 11 11 11 11 11 11 11 11 11 11 11 11 10 10 10 10
8 8 8 8 8 8 8 8 8 9 9 9 9 9 9 9 9 10 10 10 10 10 10 10 10 11 11 11 11 10 10 11 11 10 10 10 10 10 10 10 10 10 10
8 8 8 8 8 8 8 8 8 8 8 8 8 8 8 8 9 9 9 9 10 10 10 10 10 10 10 10 10 10 10 10 10 10 10 10 10 10 10 10 10 10 10
7 7 7 7 7 7 7 7 7 7 7 7 7 7 7 8 8 8 9 9 9 9 9 9 9 10 10 10 10 10 10 10 10 10 10 10 10 10 10 10 10 9 9
6 6 7 7 6 6 6 7 7 7 7 7 7 7 7 8 7 8 8 8 8 8 9 9 9 9 9 9 9 9 10 10 10 10 10 10 10 10 9 9 9 9 9
6 6 6 6 6 6 6 6 6 6 6 6 6 6 7 7 7 7 7 8 8 8 8 8 9 9 9 9 9 9 9 9 9 9 9 9 9 9 9 9 9 9 9
5 5 5 5 5 5 5 5 5 5 5 5 6 6 6 6 7 7 7 7 7 7 8 8 8 8 8 9 9 9 9 9 9 9 9 9 9 9 9 9 9 9 9
4 4 4 4 4 4 4 5 5 5 5 5 5 5 6 6 6 6 6 6 6 7 7 7 7 8 8 8 8 8 8 8 8 8 8 8 8 8 8 8 8 8 8
3 3 3 3 4 4 4 4 4 4 4 4 5 5 5 5 6 6 6 6 6 6 6 7 7 7 7 7 7 8 8 8 8 8 8 8 8 8 8 8 8 8 8
2 2 2 3 3 3 3 3 3 4 4 4 4 4 4 5 5 5 5 6 5 5 5 6 6 6 6 7 7 7 7 7 7 7 7 7 7 8 7 8 8 8 7
1 2 2 2 2 2 3 3 3 3 3 3 3 4 4 4 4 5 5 5 5 5 5 5 6 6 6 6 6 6 6 7 7 7 7 7 7 7 7 7 7 7 7
0 1 1 1 2 2 2 2 2 2 2 3 3 3 3 3 4 4 4 4 4 5 5 5 5 5 5 5 6 6 6 6 6 6 6 6 6 6 6 6 7 6 6
-0 0 0 1 1 1 1 1 1 1 2 2 2 2 3 3 3 3 3 4 4 4 4 4 4 5 5 5 5 5 5 5 5 6 6 6 6 6 6 6 6 6 6
-1 -0 -0 0 0 1 1 1 1 1 1 1 1 2 2 2 2 2 3 3 3 3 4 4 4 4 4 4 4 4 5 5 5 5 5 5 5 5 5 5 5 5 5
-1 -1 -1 -0 -0 0 0 0 0 0 0 1 1 1 1 2 2 2 2 2 3 3 3 3 3 3 3 4 4 4 4 4 4 4 4 4 5 5 5 5 5 5 5
-2 -1 -1 -1 -1 -0 -0 -0 -0 -0 -0 0 0 1 1 1 1 1 2 2 2 2 2 3 3 3 3 3 3 3 3 3 4 4 4 4 4 4 4 4 4 4 4
-2 -2 -2 -1 -1 -1 -1 -1 -1 -1 -1 -0 -0 0 0 1 1 1 1 1 2 2 2 2 2 2 2 2 2 3 3 3 3 3 3 3 3 3 3 3 4 4 3
-3 -3 -2 -2 -2 -1 -1 -1 -1 -1 -1 -1 -1 -0 -0 0 0 1 1 1 1 1 2 2 2 2 2 2 2 2 2 2 2 2 2 2 2 2 3 3 3 3 3
-4 -4 -3 -3 -2 -2 -2 -1 -1 -2 -1 -1 -1 -1 -1 -0 -0 0 0 1 1 1 1 1 2 2 2 2 2 2 2 2 2 2 2 2 2 2 2 2 2 2 2
-5 -4 -4 -3 -3 -2 -2 -2 -2 -2 -2 -2 -1 -1 -1 -1 -0 -0 -0 0 0 0 0 1 1 1 1 1 1 1 1 1 1 1 1 1 1 1 1 1 2 2 2
-6 -5 -5 -4 -4 -3 -3 -3 -2 -2 -2 -2 -2 -1 -1 -1 -1 -1 -0 -0 -0 -0 0 0 0 0 1 1 1 0 0 0 1 1 1 1 1 1 1 1 1 1 1
-6 -6 -5 -5 -4 -4 -3 -3 -3 -3 -3 -2 -2 -2 -2 -1 -1 -1 -1 -1 -1 -0 -0 -0 -0 -0 0 0 0 0 0 0 -0 -0 0 0 0 -0 -0 0 0 0 0
Wind_Speed
1 0 0 1 1 1 1 1 1 1 1 1 1 1 1 1 1 1 0 2 1 2 2 4 4 5 6 7 7 8 8 8 8 8 8 7 7 7 7 6 6 5 5
1 1 1 1 1 1 1 1 1 1 1 1 1 1 2 2 2 2 2 1 2 2 3 4 5 5 6 7 7 7 7 8 8 7 7 7 7 7 6 6 6 5 5
2 2 1 1 1 1 2 2 1 1 1 1 1 2 2 2 3 3 3 2 2 3 4 4 5 5 6 7 7 7 7 7 7 7 7 7 6 6 6 6 6 5 5
2 2 2 1 1 2 2 2 2 2 2 2 2 2 2 2 3 3 3 3 3 3 4 5 5 6 6 6 7 7 8 8 8 8 7 7 7 7 6 6 6 6 5
2 2 2 2 2 2 2 2 3 2 2 2 2 2 2 2 2 3 3 3 2 3 3 4 5 5 6 6 7 7 8 8 8 8 8 8 8 7 7 7 6 7 6
3 3 2 2 2 2 2 3 3 3 3 2 2 2 2 3 2 3 3 2 2 2 2 2 3 4 4 5 6 7 7 8 8 8 8 9 9 8 8 7 7 7 7
3 3 3 3 3 3 3 4 3 4 3 2 2 2 2 3 3 3 3 3 2 2 2 3 3 3 3 5 5 6 6 7 8 8 8 8 9 9 9 8 7 8 8
4 3 3 3 3 3 4 4 4 3 3 4 3 3 2 3 3 3 3 3 3 3 3 3 3 4 4 4 4 6 6 7 8 8 8 9 10 10 9 8 8 7 7
4 4 4 4 4 4 4 5 5 5 4 4 4 4 3 4 2 3 4 4 4 3 3 3 3 4 4 4 4 5 6 7 8 9 9 9 9 10 9 9 8 8 7
5 4 5 5 5 4 5 5 5 5 6 6 5 5 5 3 3 3 4 4 4 4 4 3 4 4 4 4 4 3 5 6 7 7 8 8 8 9 10 10 9 9 8
5 5 5 5 5 5 6 6 6 6 6 7 6 4 4 4 5 5 5 5 4 4 4 5 4 4 5 5 4 4 5 6 7 7 7 7 7 7 8 9 9 9 9
5 5 6 6 6 5 6 6 6 8 7 8 7 6 5 5 5 5 6 6 6 4 4 4 5 5 5 5 5 4 5 6 7 7 7 7 7 6 6 7 8 9 9
5 5 6 6 6 6 6 6 7 8 8 8 8 7 7 7 6 6 6 5 5 4 5 5 4 4 4 5 4 5 5 5 5 5 6 6 6 5 5 6 7 8 8
6 6 7 7 7 7 7 7 7 7 7 8 9 9 7 6 6 6 6 5 5 5 6 6 4 5 5 5 4 5 5 5 5 5 5 5 5 5 6 6 6 7 7
6 7 7 8 8 7 7 7 6 7 7 8 8 8 7 6 5 6 6 6 6 7 7 6 5 5 5 4 4 5 5 5 5 6 6 6 5 6 6 5 6 6 7
8 7 7 7 7 7 7 7 6 7 7 7 6 8 7 6 5 5 5 6 7 7 6 5 4 4 4 4 4 5 5 5 6 6 6 6 7 7 6 7 7 7 7
8 7 7 7 7 7 6 6 7 7 8 7 7 7 8 6 5 5 5 5 6 6 6 5 4 4 5 5 4 5 5 5 5 6 7 7 8 7 7 8 7 7 7
8 8 7 7 6 6 6 7 7 7 8 8 8 8 8 6 7 6 5 6 6 6 6 6 4 4 5 5 5 5 4 4 5 6 7 8 8 8 8 8 8 8 8
8 8 7 7 7 6 7 7 7 8 8 8 9 9 9 8 8 7 7 7 6 5 5 6 5 4 4 4 4 4 5 4 4 4 6 7 8 8 8 8 8 8 7
8 8 8 7 7 7 7 7 7 8 8 8 8 9 9 8 8 8 7 8 6 6 6 6 5 4 4 4 4 4 4 4 3 3 4 5 6 7 8 8 7 7 7
9 8 8 8 7 6 7 7 8 8 8 8 8 8 8 8 9 9 7 8 7 6 6 6 5 5 5 4 5 4 5 4 4 4 3 4 4 4 5 7 8 7 7
9 9 8 8 8 6 8 10 9 8 8 9 8 8 7 8 9 10 10 11 10 8 8 7 6 7 7 6 5 5 4 4 4 3 4 4 4 4 4 5 6 7 7
10 9 9 8 9 9 10 10 10 7 8 8 8 8 7 7 8 8 8 9 10 10 11 9 9 9 8 8 6 6 7 6 5 3 4 4 3 4 3 4 4 6 6
9 9 9 9 9 9 10 11 11 9 8 8 8 8 8 8 7 7 7 7 8 8 9 8 8 8 7 6 7 6 5 5 4 3 4 4 3 3 2 2 4 5 6
10 9 9 9 9 10 10 11 10 8 7 8 8 8 8 8 8 8 7 7 7 6 7 8 7 7 7 7 6 4 5 4 4 4 3 3 2 2 2 2 3 3 4
10 9 9 9 9 9 10 10 9 6 7 6 6 6 8 8 8 8 7 7 8 6 5 4 4 5 5 7 8 8 7 6 4 3 4 3 3 2 2 1 1 2 2
Wind_Direction
339 303 225 217 222 204 198 227 225 197 183 199 217 219 243 256 251 230 121 106 181 210 210 199 184 178 175 169 166 160 157 157 155 157 159 156 158 160 158 156 155 149 140
326 320 289 275 241 219 220 233 232 235 222 224 232 238 244 259 252 237 241 187 198 215 220 218 206 193 189 182 173 168 165 162 164 162 164 164 166 169 168 168 161 161 159
315 285 282 269 265 239 222 217 219 234 229 227 242 249 248 249 258 251 249 241 220 209 213 217 211 202 197 189 181 178 175 172 175 172 169 169 172 176 180 177 171 170 168
305 289 285 275 271 249 228 222 216 215 224 229 241 249 249 243 256 263 255 244 238 226 208 209 211 204 199 196 193 188 185 184 183 183 183 183 182 183 184 187 188 184 182
282 282 281 284 257 248 237 233 222 215 222 227 243 252 257 257 254 253 250 251 246 238 217 177 185 190 196 197 200 197 194 188 190 196 196 195 193 193 196 199 193 191 190
278 277 285 281 268 254 240 236 229 222 225 222 237 258 270 263 249 244 238 235 236 243 230 206 185 172 184 195 202 205 203 198 198 203 204 205 204 206 207 205 203 199 200
276 273 288 279 271 256 248 237 232 224 222 211 222 257 270 257 246 240 240 232 223 232 235 225 214 198 188 198 206 206 206 208 207 209 211 212 213 212 213 212 211 210 211
275 272 268 260 257 256 252 246 229 230 230 213 214 213 227 237 230 243 242 240 236 226 223 228 224 220 217 214 198 203 210 216 216 216 215 218 218 217 216 218 216 210 212
273 273 264 263 255 248 245 245 239 232 228 226 222 218 217 224 230 222 231 235 233 232 228 223 226 229 224 222 211 197 202 216 223 226 223 223 219 215 214 216 217 216 216
274 269 265 260 252 249 244 240 240 242 228 228 229 242 253 248 225 218 222 230 239 243 243 234 227 230 232 233 226 210 202 214 223 229 226 220 216 218 219 219 220 220 221
278 268 264 261 253 251 247 244 243 243 234 230 227 233 244 244 243 240 240 231 235 245 248 246 240 237 235 233 230 219 210 220 231 232 230 227 226 224 227 225 224 223 225
286 278 272 262 254 251 248 246 243 241 240 237 232 230 232 231 232 235 239 231 235 243 249 251 245 239 238 235 229 216 216 223 232 231 233 233 232 232 236 236 231 226 225
290 283 283 268 258 255 253 251 246 243 242 240 237 236 238 241 241 241 239 238 244 249 248 248 242 238 239 236 227 219 217 218 223 226 234 235 239 237 240 242 240 234 231
291 295 290 279 266 260 256 249 246 244 245 244 242 241 243 243 240 238 237 236 240 244 239 239 239 236 233 236 239 229 220 208 212 221 230 234 241 238 239 241 241 237 232
298 294 287 279 269 261 257 254 245 245 246 247 245 241 242 243 243 243 241 234 235 242 242 238 236 231 227 232 232 232 228 209 213 221 224 227 233 235 236 238 239 240 235
298 291 287 281 270 261 257 251 250 245 244 246 247 241 241 242 241 242 241 241 243 246 249 242 240 234 223 226 228 237 234 219 214 219 223 226 231 235 236 238 238 240 237
298 287 283 281 276 259 250 247 247 245 243 246 246 241 240 240 238 238 240 240 241 240 244 251 245 232 230 235 234 238 234 232 223 218 222 226 230 233 238 237 237 239 238
298 291 282 277 274 267 252 245 245 245 244 244 243 243 241 236 235 235 233 235 238 238 236 239 242 236 236 231 235 238 238 234 231 219 222 229 230 232 233 233 233 233 235
302 296 286 278 273 269 257 246 242 243 243 242 241 240 240 234 234 233 230 231 234 234 233 233 235 241 243 228 232 243 238 233 230 223 222 229 231 231 230 230 229 228 228
303 297 292 283 276 271 262 249 244 244 245 245 243 240 239 237 234 233 231 229 227 228 226 222 222 227 239 236 227 230 233 230 230 226 227 230 226 224 225 223 222 222 224
306 303 295 286 281 273 262 253 249 246 246 247 247 244 241 241 241 236 232 226 219 220 219 217 216 223 227 224 226 232 233 229 235 230 229 227 222 225 222 218 217 221 227
306 305 296 287 283 278 280 274 261 249 247 246 247 247 247 241 241 245 237 228 222 219 217 218 220 220 224 227 230 222 225 225 238 213 227 238 230 233 233 226 216 216 223
305 304 297 289 284 284 286 285 274 259 250 247 245 243 244 241 241 241 234 229 229 230 229 225 223 224 223 221 218 223 227 229 238 212 214 239 235 241 240 229 226 224 225
300 300 298 290 288 287 288 286 282 263 255 249 245 242 239 239 238 238 231 231 231 231 232 230 230 231 229 221 219 226 231 244 247 232 218 237 233 238 242 238 231 233 232
298 297 296 294 291 292 291 288 287 266 257 251 250 247 243 239 237 239 233 228 232 239 238 230 230 224 219 214 210 207 206 218 234 231 213 219 224 241 252 246 224 212 223
294 296 295 293 291 291 293 292 291 273 261 256 255 251 246 242 239 235 230 225 227 231 227 222 216 212 213 209 209 218 215 216 221 223 200 197 200 205 233 241 229 216 213
Height
1539 1539 1540 1540 1541 1541 1541 1542 1542 1543 1543 1543 1544 1545 1545 1546 1546 1546 1547 1547 1548 1549 1549 1550 1551 1552 1552 1553 1554 1555 1556 1556 1557 1558 1558 1559 1559 1560 1560 1561 1561 1561 1561
1537 1537 1538 1538 1538 1539 1539 1540 1540 1541 1541 1541 1542 1542 1543 1544 1544 1544 1545 1545 1545 1546 1547 1548 1549 1550 1551 1552 1553 1554 1555 1555 1556 1556 1557 1558 1558 1559 1559 1560 1560 1560 1560
1535 1535 1535 1535 1536 1537 1537 1538 1538 1539 1539 1539 1539 1540 1541 1541 1542 1542 1543 1543 1543 1544 1545 1546 1547 1548 1549 1550 1551 1552 1553 1553 1554 1555 1556 1556 1557 1557 1558 1558 1559 1559 1559
1532 1532 1532 1533 1533 1534 1535 1535 1535 1536 1536 1536 1537 1538 1538 1538 1539 1540 1540 1541 1541 1542 1542 1543 1544 1546 1547 1548 1549 1550 1551 1552 1553 1553 1554 1554 1555 1556 1556 1557 1557 1558 1558
1529 1529 1530 1530 1530 1531 1532 1532 1533 1533 1533 1533 1534 1535 1535 1536 1536 1537 1538 1538 1539 1539 1540 1541 1542 1543 1544 1545 1546 1547 1548 1549 1550 1551 1552 1553 1553 1554 1554 1555 1555 1556 1557
1526 1527 1527 1527 1527 1528 1528 1528 1529 1530 1530 1531 1531 1532 1532 1533 1533 1534 1535 1535 1536 1536 1537 1538 1539 1540 1541 1542 1543 1544 1545 1546 1547 1548 1549 1550 1551 1551 1552 1553 1553 1554 1555
1523 1523 1523 1523 1524 1524 1525 1525 1525 1526 1527 1528 1528 1529 1529 1530 1530 1531 1532 1533 1533 1534 1534 1535 1536 1537 1538 1539 1540 1541 1542 1543 1544 1545 1546 1547 1548 1549 1549 1550 1551 1551 1552
1519 1519 1519 1519 1519 1520 1521 1521 1522 1522 1523 1524 1525 1526 1527 1528 1527 1527 1528 1529 1530 1531 1531 1532 1533 1534 1535 1536 1537 1538 1539 1540 1541 1542 1543 1544 1545 1546 1547 1547 1548 1548 1549
1514 1514 1515 1515 1515 1516 1516 1517 1518 1518 1519 1520 1522 1523 1524 1523 1524 1524 1524 1525 1526 1527 1528 1528 1529 1530 1531 1532 1533 1534 1535 1536 1537 1538 1539 1540 1541 1542 1543 1544 1545 1545 1546
1510 1510 1510 1510 1511 1511 1512 1512 1514 1514 1515 1516 1517 1519 1520 1520 1521 1520 1521 1522 1522 1523 1524 1525 1525 1526 1527 1528 1529 1530 1531 1532 1533 1534 1535 1536 1537 1538 1539 1540 1541 1542 1543
1505 1505 1505 1505 1506 1506 1507 1508 1509 1510 1511 1512 1513 1513 1514 1515 1516 1517 1516 1517 1518 1519 1520 1521 1521 1522 1523 1524 1525 1526 1527 1528 1529 1530 1531 1532 1533 1534 1535 1536 1537 1538 1538
1500 1500 1500 1500 1500 1501 1502 1502 1503 1505 1506 1507 1508 1509 1510 1511 1512 1512 1513 1513 1514 1514 1515 1516 1517 1518 1518 1519 1520 1521 1523 1524 1525 1526 1527 1528 1529 1530 1531 1532 1533 1533 1534
1495 1495 1495 1495 1495 1496 1497 1497 1498 1499 1500 1501 1502 1504 1505 1506 1508 1508 1509 1509 1509 1510 1511 1511 1512 1513 1514 1515 1516 1517 1518 1519 1520 1521 1522 1524 1525 1525 1526 1527 1528 1529 1530
1490 1490 1490 1491 1491 1491 1491 1492 1492 1493 1494 1496 1497 1498 1499 1501 1502 1503 1504 1505 1505 1505 1506 1506 1507 1508 1509 1511 1511 1512 1513 1514 1515 1517 1518 1519 1520 1521 1522 1523 1524 1525 1526
1486 1486 1486 1486 1486 1486 1486 1486 1487 1487 1489 1490 1491 1492 1494 1495 1496 1498 1499 1500 1502 1501 1501 1502 1503 1504 1505 1506 1506 1508 1508 1509 1511 1512 1513 1514 1515 1516 1517 1518 1519 1520 1521
1482 1482 1481 1481 1481 1480 1481 1481 1482 1482 1484 1484 1485 1486 1487 1489 1490 1492 1493 1494 1496 1497 1496 1496 1497 1499 1500 1501 1502 1503 1504 1505 1506 1507 1508 1509 1510 1511 1512 1513 1514 1514 1515
1478 1477 1476 1476 1475 1475 1475 1475 1476 1477 1478 1479 1480 1481 1482 1483 1484 1486 1487 1488 1490 1491 1491 1491 1493 1494 1495 1496 1497 1498 1499 1500 1501 1502 1503 1504 1505 1506 1507 1507 1508 1509 1510
1473 1472 1472 1471 1470 1470 1470 1470 1471 1472 1473 1473 1474 1475 1476 1478 1479 1480 1481 1482 1484 1485 1486 1486 1487 1488 1489 1491 1492 1493 1494 1494 1495 1496 1497 1498 1499 1500 1501 1502 1503 1503 1504
1469 1467 1467 1466 1465 1465 1465 1465 1465 1466 1467 1468 1469 1469 1470 1472 1473 1474 1476 1477 1479 1480 1481 1482 1482 1483 1484 1486 1487 1488 1489 1489 1490 1491 1492 1493 1494 1495 1496 1497 1497 1498 1499
1464 1462 1461 1461 1460 1460 1460 1460 1460 1461 1462 1462 1463 1464 1464 1465 1466 1468 1470 1471 1473 1474 1476 1476 1477 1478 1479 1480 1482 1482 1483 1484 1485 1486 1487 1487 1488 1489 1490 1491 1492 1493 1494
1460 1458 1456 1455 1455 1455 1454 1454 1455 1455 1456 1456 1457 1457 1458 1459 1461 1463 1464 1465 1467 1469 1470 1470 1471 1472 1473 1475 1476 1477 1478 1479 1480 1481 1481 1482 1483 1484 1485 1486 1487 1488 1489
1456 1453 1452 1451 1450 1449 1449 1449 1450 1450 1451 1451 1451 1452 1452 1454 1455 1457 1458 1459 1461 1463 1464 1465 1465 1466 1467 1469 1471 1472 1474 1474 1475 1477 1477 1478 1479 1479 1480 1481 1482 1483 1483
1451 1449 1448 1446 1445 1444 1444 1444 1444 1445 1445 1446 1446 1446 1447 1448 1449 1451 1452 1453 1455 1456 1458 1460 1460 1460 1462 1464 1466 1467 1468 1469 1470 1471 1473 1473 1474 1474 1475 1476 1477 1477 1478
1447 1445 1443 1441 1440 1439 1439 1439 1439 1440 1440 1440 1440 1441 1441 1442 1443 1445 1446 1447 1448 1450 1452 1453 1454 1455 1457 1459 1460 1462 1463 1464 1465 1467 1468 1468 1469 1470 1470 1471 1472 1473 1473
1443 1441 1439 1437 1435 1434 1434 1434 1434 1434 1434 1434 1434 1435 1436 1436 1438 1439 1441 1442 1443 1444 1446 1447 1448 1450 1451 1453 1455 1457 1458 1459 1459 1461 1462 1463 1464 1465 1466 1466 1467 1468 1469
1439 1437 1435 1433 1431 1430 1430 1430 1430 1429 1428 1428 1429 1429 1430 1431 1432 1434 1435 1436 1437 1438 1439 1441 1442 1444 1445 1447 1449 1451 1452 1454 1454 1455 1456 1458 1459 1460 1461 1462 1463 1463 1464